User: anonymous   Login
Location: Unspecified
(0.0000°N, 0.0000°E)
Time: 08:04:54
(UTC+02:00)
Language:

ATLAS V CENTAUR R/B - Orbit

View from above orbital plane
View from above orbital plane
View from above satellite
View from above satellite

Ground track
Ground track

The orbit data is extracted from the following two-line orbital elements,

1 27500U 02038B   15182.99033553  .00010361  00000-0  14971-2 0  9996
2 27500 018.0614 078.5880 6879848 332.5127 027.2634 02.81356945105255
Epoch (UTC): 01 July 2015 23:46:04
Eccentricity: 0.6879848
inclination: 18.0614°
perigee height: 235 km
apogee height: 29398 km
right ascension of ascending node: 78.5880°
argument of perigee: 332.5127°
revolutions per day: 2.81356945
mean anomaly at epoch: 27.2634°
orbit number at epoch: 10525

The dashed part of the orbit path shows where the satellite is in the earth's shadow,  

DLR